N9BLE Weather Reports


time (UTC)temp
C
wind
direction
speed
KPH
gust
KPH
rain 1hr
cm
rain 24hr
cm
rain mn
cm
humidity
%
barometer
mb
20260906133336 21 67 4.8 9.7 0.00 0.00 0.00 87 1023.8
20260906132831 22 77 3.2 3.2 0.00 0.00 0.00 86 1023.9
20260906132326 21 83 1.6 9.7 0.00 0.00 0.00 86 1023.7
20260906131822 21 83 3.2 8.0 0.00 0.00 0.00 88 1023.6
20260906131317 21 84 4.8 9.7 0.00 0.00 0.00 89 1023.6
20260906130813 21 83 4.8 8.0 0.00 0.00 0.00 89 1023.6
20260906130312 21 106 1.6 4.8 0.00 0.00 0.00 89 1023.7
20260906125811 21 92 4.8 8.0 0.00 0.00 0.00 89 1023.5
20260906125310 20 85 3.2 8.0 0.00 0.00 0.00 90 1023.6
20260906124810 20 85 3.2 4.8 0.00 0.00 0.00 95 1023.5
20260906124306 20 85 3.2 4.8 0.00 0.00 0.00 95 1023.5
20260906123804 20 85 3.2 4.8 0.00 0.00 0.00 95 1023.5
20260906123300 19 90 1.6 3.2 0.00 0.00 0.00 97 1023.4
20260906122759 19 82 1.6 1.6 0.00 0.00 0.00 97 1023.2
20260906122255 19 80 3.2 3.2 0.00 0.00 0.00 97 1023.3
20260906121751 19 42 0.0 0.0 0.00 0.00 0.00 98 1023.4
20260906121247 18 41 0.0 0.0 0.00 0.00 0.00 98 1023.5
20260906120743 18 32 0.0 0.0 0.00 0.00 0.00 98 1023.5
20260906120240 18 29 0.0 1.6 0.00 0.00 0.00 98 1023.3
20260906115735 18 26 0.0 0.0 0.00 0.00 0.00 98 1023.1
20260906115230 19 15 0.0 1.6 0.00 0.00 0.00 98 1022.8
20260906111850 18 88 1.6 3.2 0.00 0.00 0.00 98 1022.6
20260906111349 18 88 1.6 3.2 0.00 0.00 0.00 98 1022.6
20260906110844 18 73 0.0 1.6 0.00 0.00 0.00 98 1022.2
20260906110340 18 73 0.0 1.6 0.00 0.00 0.00 98 1022.4
20260906105839 18 66 0.0 1.6 0.00 0.00 0.00 98 1022.5
20260906105334 18 65 0.0 1.6 0.00 0.00 0.00 98 1022.3
20260906104831 18 37 0.0 0.0 0.00 0.00 0.00 97 1022.3
20260906104329 18 37 0.0 0.0 0.00 0.00 0.00 97 1022.3
20260906103828 18 37 0.0 0.0 0.00 0.00 0.00 97 1022.3
20260906101754 17 37 0.0 1.6 0.00 0.00 0.00 97 1022.0
20260906101248 17 37 0.0 1.6 0.00 0.00 0.00 97 1022.0
20260906100743 17 37 0.0 0.0 0.00 0.00 0.00 97 1022.0
20260906100243 17 37 0.0 0.0 0.00 0.00 0.00 97 1022.0
20260906095738 17 37 0.0 0.0 0.00 0.00 0.00 97 1021.9
20260906095233 17 37 0.0 0.0 0.00 0.00 0.00 97 1021.9
20260906081655 18 66 0.0 0.0 0.00 0.00 0.00 96 1021.9
20260906081150 18 66 0.0 0.0 0.00 0.00 0.00 96 1021.9
20260906080647 18 66 0.0 0.0 0.00 0.00 0.00 96 1021.8
20260906080143 18 66 0.0 0.0 0.00 0.00 0.00 96 1021.9
20260906075642 18 66 0.0 0.0 0.00 0.00 0.00 95 1021.9
20260906075136 18 66 0.0 0.0 0.00 0.00 0.00 95 1022.0
20260906073656 19 79 0.0 1.6 0.00 0.00 0.00 95 1021.8
20260906073151 19 79 0.0 1.6 0.00 0.00 0.00 95 1021.8
20260906072646 19 87 0.0 0.0 0.00 0.00 0.00 94 1021.9
20260906072142 19 87 0.0 0.0 0.00 0.00 0.00 94 1021.8
20260906071638 19 87 0.0 1.6 0.00 0.00 0.00 94 1022.0
20260906071138 19 87 0.0 0.0 0.00 0.00 0.00 94 1021.9
20260906070635 19 87 0.0 1.6 0.00 0.00 0.00 94 1022.0
20260906070130 19 85 0.0 0.0 0.00 0.00 0.00 94 1022.1
20260906065630 20 85 0.0 0.0 0.00 0.00 0.00 94 1022.0
20260906065125 20 85 0.0 0.0 0.00 0.00 0.00 93 1022.1
20260906064621 20 94 1.6 1.6 0.00 0.00 0.00 93 1022.0
20260906064121 20 94 1.6 1.6 0.00 0.00 0.00 93 1022.0
20260906063616 20 94 0.0 0.0 0.00 0.00 0.00 93 1022.1
20260906063112 20 84 1.6 1.6 0.00 0.00 0.00 92 1021.7
20260906062607 20 83 0.0 1.6 0.00 0.00 0.00 92 1021.7
20260906062106 20 74 1.6 3.2 0.00 0.00 0.00 92 1022.0
20260906061603 20 72 1.6 3.2 0.00 0.00 0.00 92 1021.9
20260906061102 20 81 0.0 1.6 0.00 0.00 0.00 91 1022.0
20260906060559 20 50 1.6 1.6 0.00 0.00 0.00 91 1021.9
20260906060056 20 90 1.6 1.6 0.00 0.00 0.00 90 1022.0
20260906055551 20 66 3.2 4.8 0.00 0.00 0.00 90 1021.8
20260906055046 20 60 1.6 1.6 0.00 0.00 0.00 90 1021.9
20260906054541 20 65 1.6 1.6 0.00 0.00 0.00 90 1021.8
20260906054036 20 88 0.0 1.6 0.00 0.00 0.00 90 1022.1
20260906053533 20 91 0.0 1.6 0.00 0.00 0.00 90 1021.9
20260906053028 20 86 1.6 1.6 0.00 0.00 0.00 90 1021.8
20260906052524 20 83 1.6 3.2 0.00 0.00 0.00 90 1021.8
20260906052021 21 87 1.6 3.2 0.00 0.00 0.00 90 1021.8
20260906051516 21 77 0.0 1.6 0.00 0.00 0.00 90 1021.8
20260906051011 21 79 1.6 1.6 0.00 0.00 0.00 90 1021.8
20260906050512 21 79 1.6 3.2 0.00 0.00 0.00 90 1021.8
20260906050006 21 100 1.6 1.6 0.00 0.00 0.00 90 1021.9
20260906045504 21 100 0.0 1.6 0.00 0.00 0.00 90 1021.7
20260906045001 20 82 0.0 1.6 0.00 0.00 0.00 90 1021.6
20260906044455 20 82 0.0 1.6 0.00 0.00 0.00 90 1021.6
20260906043951 20 82 0.0 1.6 0.00 0.00 0.00 90 1021.7
20260906043447 20 82 0.0 0.0 0.00 0.00 0.00 90 1021.6
20260906042943 20 82 0.0 1.6 0.00 0.00 0.00 90 1021.7
20260906042442 20 82 0.0 1.6 0.00 0.00 0.00 90 1021.6
20260906041942 20 82 0.0 0.0 0.00 0.00 0.00 90 1021.3
20260906041438 20 82 0.0 0.0 0.00 0.00 0.00 89 1021.2
20260906040937 21 82 0.0 0.0 0.00 0.00 0.00 89 1021.2
20260906040433 21 82 0.0 0.0 0.00 0.00 0.00 89 1021.2
20260906035928 21 82 0.0 0.0 0.00 0.00 0.00 89 1021.1
20260906035429 21 82 0.0 1.6 0.00 0.00 0.00 89 1021.0
20260906034924 21 82 0.0 0.0 0.00 0.00 0.00 89 1021.2
20260906034419 21 83 0.0 1.6 0.00 0.00 0.00 89 1021.2
20260906033915 21 84 1.6 3.2 0.00 0.00 0.00 88 1021.0
20260906033415 21 99 3.2 4.8 0.00 0.00 0.00 88 1020.9
20260906032910 21 74 0.0 3.2 0.00 0.00 0.00 88 1020.9
20260906032407 21 85 1.6 3.2 0.00 0.00 0.00 88 1020.9
20260906031907 21 86 1.6 4.8 0.00 0.00 0.00 88 1020.7
20260906031403 21 82 3.2 4.8 0.00 0.00 0.00 88 1020.7
20260906030857 21 92 4.8 4.8 0.00 0.00 0.00 87 1020.7
20260906030353 21 78 0.0 1.6 0.00 0.00 0.00 86 1020.7
20260906025852 21 79 1.6 1.6 0.00 0.00 0.00 85 1020.6
20260906025346 21 84 1.6 4.8 0.00 0.00 0.00 85 1020.7
20260906024845 21 104 4.8 8.0 0.00 0.00 0.00 85 1020.6
20260906024345 21 67 3.2 4.8 0.00 0.00 0.00 84 1020.5
20260906023840 22 90 3.2 4.8 0.00 0.00 0.00 84 1020.5
20260906023336 22 101 8.0 9.7 0.00 0.00 0.00 84 1020.6
20260906022831 21 68 4.8 11.3 0.00 0.00 0.00 84 1020.7
20260906022326 21 95 4.8 4.8 0.00 0.00 0.00 84 1020.7
20260906021822 21 92 4.8 8.0 0.00 0.00 0.00 84 1020.9
20260906021321 21 77 1.6 1.6 0.00 0.00 0.00 84 1020.6
20260906020822 21 103 4.8 4.8 0.00 0.00 0.00 84 1020.5
20260906020321 21 85 3.2 3.2 0.00 0.00 0.00 84 1020.7
20260906015816 21 75 6.4 9.7 0.00 0.00 0.00 84 1020.8
20260906015315 21 78 1.6 8.0 0.00 0.00 0.00 84 1020.8
20260906014815 21 80 1.6 3.2 0.00 0.00 0.00 84 1020.7
20260906014310 21 87 3.2 4.8 0.00 0.00 0.00 84 1020.9
20260906013806 22 80 4.8 4.8 0.00 0.00 0.00 83 1020.6
20260906013301 22 85 1.6 8.0 0.00 0.00 0.00 83 1020.6
20260906012756 22 72 1.6 4.8 0.00 0.00 0.00 83 1020.9
20260906012251 22 67 3.2 8.0 0.00 0.00 0.00 83 1020.6
20260906011746 22 79 6.4 11.3 0.00 0.00 0.00 84 1020.8
20260906011246 22 74 4.8 4.8 0.00 0.00 0.00 84 1020.6
20260906010742 22 88 8.0 11.3 0.00 0.00 0.00 83 1020.7
20260906010238 22 71 9.7 14.5 0.00 0.00 0.00 82 1020.7
20260906005733 22 109 1.6 4.8 0.00 0.00 0.00 83 1020.5
20260906005232 22 85 6.4 8.0 0.00 0.00 0.00 84 1020.7
20260906004731 22 83 4.8 9.7 0.00 0.00 0.00 83 1020.5
20260906004227 22 85 0.0 0.0 0.00 0.00 0.00 83 1020.5
20260906003722 22 74 1.6 1.6 0.00 0.00 0.00 82 1020.2
20260906003217 23 86 1.6 3.2 0.00 0.00 0.00 83 1020.4
20260906002717 23 351 0.0 4.8 0.00 0.00 0.00 83 1020.2
20260906002212 23 95 1.6 3.2 0.00 0.00 0.00 83 1020.2
20260906001707 23 96 1.6 3.2 0.00 0.00 0.00 81 1020.2
20260906001207 23 93 1.6 8.0 0.00 0.00 0.00 80 1020.0
20260906000703 24 93 3.2 4.8 0.00 0.00 0.00 80 1020.0
20260906000158 24 105 3.2 4.8 0.00 0.00 0.00 80 1019.9
20260905235657 24 33 4.8 8.0 0.00 0.00 0.00 80 1019.9
20260905235152 25 25 4.8 4.8 0.00 0.00 0.00 79 1019.6
20260905234647 25 90 3.2 8.0 0.00 0.00 0.00 78 1019.6
20260905234143 25 110 3.2 4.8 0.00 0.00 0.00 77 1019.6
20260905233638 25 77 4.8 8.0 0.00 0.00 0.00 76 1019.5
20260905233137 25 77 3.2 4.8 0.00 0.00 0.00 75 1019.4
20260905232633 25 83 1.6 3.2 0.00 0.00 0.00 75 1019.4
20260905232128 26 84 6.4 8.0 0.00 0.00 0.00 73 1019.3
20260905231623 26 27 1.6 3.2 0.00 0.00 0.00 71 1019.5
20260905231119 26 83 1.6 4.8 0.00 0.00 0.00 69 1019.4
20260905230615 27 109 3.2 4.8 0.00 0.00 0.00 69 1019.4
20260905230113 26 77 1.6 4.8 0.00 0.00 0.00 69 1019.5
20260905225613 26 114 1.6 3.2 0.00 0.00 0.00 69 1019.4
20260905225108 27 327 4.8 8.0 0.00 0.00 0.00 67 1019.3
20260905224608 27 89 1.6 3.2 0.00 0.00 0.00 67 1019.3
20260905224107 27 76 3.2 4.8 0.00 0.00 0.00 66 1019.0
20260905223604 27 140 4.8 11.3 0.00 0.00 0.00 64 1019.1
20260905223101 28 94 1.6 3.2 0.00 0.00 0.00 64 1019.1
20260905222600 27 325 1.6 3.2 0.00 0.00 0.00 64 1019.0
20260905222055 27 30 0.0 4.8 0.00 0.00 0.00 66 1019.1
20260905221552 27 78 1.6 8.0 0.00 0.00 0.00 64 1019.2
20260905221048 28 50 3.2 4.8 0.00 0.00 0.00 63 1019.1
20260905220543 27 90 3.2 4.8 0.00 0.00 0.00 64 1019.1
20260905220039 27 37 3.2 8.0 0.00 0.00 0.00 66 1019.0
20260905215538 27 38 0.0 4.8 0.00 0.00 0.00 65 1019.2
20260905215035 27 22 1.6 8.0 0.00 0.00 0.00 64 1019.2
20260905214531 27 23 1.6 1.6 0.00 0.00 0.00 66 1019.0
20260905214025 27 94 3.2 3.2 0.00 0.00 0.00 66 1019.1
20260905213520 26 50 3.2 3.2 0.00 0.00 0.00 68 1019.1
20260905213016 27 100 3.2 8.0 0.00 0.00 0.00 66 1019.1
20260905212511 27 15 3.2 3.2 0.00 0.00 0.00 66 1019.1
20260905212010 26 13 1.6 4.8 0.00 0.00 0.00 69 1019.4
20260905211506 26 356 3.2 4.8 0.00 0.00 0.00 70 1019.5
20260905211001 25 68 0.0 1.6 0.00 0.00 0.00 73 1019.3
20260905210457 25 90 0.0 4.8 0.00 0.00 0.00 76 1019.5
20260905205956 26 62 1.6 3.2 0.00 0.00 0.00 73 1019.5
20260905205451 27 93 1.6 4.8 0.00 0.00 0.00 73 1019.2
20260905204949 27 93 4.8 4.8 0.00 0.00 0.00 69 1019.3
20260905204446 26 85 1.6 4.8 0.00 0.00 0.00 70 1019.4
20260905203945 26 52 1.6 4.8 0.00 0.00 0.00 70 1019.6
20260905203440 25 100 3.2 3.2 0.00 0.00 0.00 71 1019.5
20260905202936 25 96 1.6 3.2 0.00 0.00 0.00 75 1019.7
20260905202431 25 43 3.2 3.2 0.00 0.00 0.00 76 1019.7
20260905201926 26 76 3.2 4.8 0.00 0.00 0.00 76 1019.7
20260905201421 26 54 0.0 3.2 0.00 0.00 0.00 75 1019.8
20260905200921 25 82 1.6 1.6 0.00 0.00 0.00 74 1019.6
20260905200417 26 78 1.6 4.8 0.00 0.00 0.00 73 1019.6
20260905195915 26 67 0.0 1.6 0.00 0.00 0.00 74 1019.7
20260905195410 27 72 3.2 4.8 0.00 0.00 0.00 70 1019.6
20260905194906 26 53 3.2 8.0 0.00 0.00 0.00 72 1019.7
20260905194406 27 67 3.2 3.2 0.00 0.00 0.00 71 1019.6
20260905193906 27 100 4.8 9.7 0.00 0.00 0.00 70 1019.6
20260905193401 27 89 4.8 11.3 0.00 0.00 0.00 71 1019.5
20260905192856 26 58 4.8 8.0 0.00 0.00 0.00 72 1019.5
20260905192351 26 76 8.0 11.3 0.00 0.00 0.00 72 1019.5
20260905191851 27 96 4.8 9.7 0.00 0.00 0.00 70 1019.5
20260905191350 28 67 3.2 4.8 0.00 0.00 0.00 70 1019.4
20260905190849 28 50 3.2 4.8 0.00 0.00 0.00 68 1019.5
20260905190348 27 132 4.8 8.0 0.00 0.00 0.00 69 1019.5
20260905185847 27 75 3.2 8.0 0.00 0.00 0.00 69 1019.5
20260905185343 27 75 3.2 4.8 0.00 0.00 0.00 69 1019.5
20260905184841 28 73 3.2 4.8 0.00 0.00 0.00 68 1019.6
20260905184341 27 13 3.2 3.2 0.00 0.00 0.00 68 1019.6
20260905183840 27 60 3.2 4.8 0.00 0.00 0.00 71 1019.8
20260905183336 27 74 3.2 8.0 0.00 0.00 0.00 69 1019.7
20260905182836 27 45 3.2 9.7 0.00 0.00 0.00 71 1019.6
20260905182335 26 77 1.6 3.2 0.00 0.00 0.00 73 1019.6
20260905181831 28 79 4.8 8.0 0.00 0.00 0.00 71 1019.8
20260905181330 28 8 9.7 11.3 0.00 0.00 0.00 68 1019.7
20260905180829 26 92 1.6 3.2 0.00 0.00 0.00 72 1019.7
20260905180325 27 95 1.6 4.8 0.00 0.00 0.00 75 1019.7
20260905175820 27 12 6.4 9.7 0.00 0.00 0.00 73 1019.7
20260905175314 27 57 1.6 1.6 0.00 0.00 0.00 73 1019.5
20260905174809 27 59 1.6 3.2 0.00 0.00 0.00 72 1019.5
20260905174305 27 34 1.6 4.8 0.00 0.00 0.00 72 1019.4
20260905173801 27 53 1.6 3.2 0.00 0.00 0.00 74 1019.5
20260905173257 27 77 1.6 4.8 0.00 0.00 0.00 73 1019.6
20260905172756 27 53 3.2 3.2 0.00 0.00 0.00 72 1019.5
20260905172255 27 23 3.2 4.8 0.00 0.00 0.00 73 1019.6
20260905171751 27 53 1.6 1.6 0.00 0.00 0.00 73 1019.5
20260905171248 27 75 3.2 4.8 0.00 0.00 0.00 75 1019.5
20260905170744 27 57 3.2 4.8 0.00 0.00 0.00 75 1019.6
20260905170239 26 83 3.2 8.0 0.00 0.00 0.00 78 1019.7
20260905165738 27 342 3.2 4.8 0.00 0.00 0.00 76 1019.5
20260905165234 26 103 1.6 4.8 0.00 0.00 0.00 78 1019.8
20260905164733 26 94 0.0 1.6 0.00 0.00 0.00 77 1019.7
20260905164228 26 86 1.6 3.2 0.00 0.00 0.00 80 1019.8
20260905163725 26 80 3.2 3.2 0.00 0.00 0.00 79 1019.6
20260905163220 25 65 0.0 1.6 0.00 0.00 0.00 81 1019.8
20260905162716 26 78 4.8 8.0 0.00 0.00 0.00 81 1019.7
20260905162216 26 20 1.6 3.2 0.00 0.00 0.00 81 1019.6
20260905161711 26 71 3.2 4.8 0.00 0.00 0.00 81 1020.2
20260905161209 25 91 3.2 3.2 0.00 0.00 0.00 84 1019.7
20260905160708 25 101 3.2 3.2 0.00 0.00 0.00 83 1020.2
20260905160208 25 29 0.0 1.6 0.00 0.00 0.00 84 1019.7
20260905155702 25 72 1.6 3.2 0.00 0.00 0.00 85 1019.9
20260905155202 25 80 1.6 3.2 0.00 0.00 0.00 84 1019.8
20260905154655 25 135 4.8 4.8 0.00 0.00 0.00 83 1019.9
20260905154151 25 65 3.2 3.2 0.00 0.00 0.00 84 1019.8
20260905153647 25 48 1.6 3.2 0.00 0.00 0.00 85 1019.6
20260905153143 24 22 1.6 4.8 0.00 0.00 0.00 86 1019.6
20260905152637 23 102 4.8 4.8 0.00 0.00 0.00 86 1019.8
20260905152132 23 27 1.6 3.2 0.00 0.00 0.00 87 1019.7
20260905151626 23 78 4.8 3.2 0.00 0.00 0.00 87 1019.7
20260905151122 23 40 3.2 3.2 0.00 0.00 0.00 86 1019.4
20260905150617 23 89 3.2 3.2 0.00 0.00 0.00 87 1019.4
20260905150115 23 48 0.0 3.2 0.00 0.00 0.00 88 1019.4
20260905145615 23 74 1.6 3.2 0.00 0.00 0.00 89 1019.2
20260905145114 22 74 1.6 3.2 0.00 0.00 0.00 90 1019.2
20260905144608 23 35 4.8 8.0 0.00 0.00 0.00 89 1019.1
20260905144108 23 342 1.6 9.7 0.00 0.00 0.00 90 1019.1
20260905143607 22 77 1.6 3.2 0.00 0.00 0.00 91 1019.0
20260905143103 22 69 1.6 3.2 0.00 0.00 0.00 91 1019.0
20260905142602 23 79 3.2 9.7 0.00 0.00 0.00 91 1019.2
20260905142102 23 49 4.8 8.0 0.00 0.00 0.00 90 1019.0
20260905141601 23 47 3.2 3.2 0.00 0.00 0.00 92 1019.2
20260905141058 22 75 1.6 3.2 0.00 0.00 0.00 92 1019.3
20260905140553 23 72 4.8 8.0 0.00 0.00 0.00 92 1019.0
20260905140052 22 103 3.2 3.2 0.00 0.00 0.00 92 1019.1
20260905135548 23 52 3.2 3.2 0.00 0.00 0.00 92 1019.0
20260905135047 23 86 4.8 4.8 0.00 0.00 0.00 92 1018.9
20260905134543 23 98 3.2 3.2 0.00 0.00 0.00 93 1018.8
20260905134041 23 59 0.0 3.2 0.00 0.00 0.00 92 1018.8